RH
87 89 88 87 88 82 67 50 39 29 18 12 11 11 11 11 12 13 14 15 17 18 19 19 19 20 21 22 23 24 26 28 31 34 37 40 43 46 51 55 61 64 65 67 65 63 69 73 63 50 44 41 39 37 36 37 38 38 38 39 39 40 40 40 40 42 44 46 46 47 49 56 65 65 55 45 42 45 50 53 50 45 46 49 48 48 52
89 89 88 87 80 64 47 35 26 17 11 11 11 11 12 12 12 14 17 19 19 20 21 20 21 21 21 21 23 24 25 26 29 31 33 36 38 41 44 46 49 48 46 48 46 41 46 51 45 37 35 36 36 36 37 38 39 39 39 39 38 38 38 39 40 43 49 54 58 60 64 72 73 62 47 43 48 54 57 56 52 48 47 50 52 51 53
90 90 87 77 61 43 31 22 15 11 11 11 10 12 12 13 15 18 21 22 21 21 20 20 21 22 23 24 24 25 25 26 28 30 31 33 35 36 37 37 37 35 33 34 34 32 33 35 34 33 34 35 37 38 39 39 38 37 36 37 39 42 47 50 50 52 52 47 44 46 50 56 56 49 45 48 53 57 57 55 53 48 46 51 55 51 52
90 86 74 56 38 26 19 13 11 11 10 10 11 13 14 16 21 23 23 22 21 20 21 22 22 23 24 25 25 25 26 26 27 28 29 30 30 30 31 30 29 28 27 28 28 28 28 29 31 33 34 36 38 37 37 36 37 38 40 42 43 46 51 50 44 43 39 30 29 34 39 43 45 44 46 49 51 53 54 53 52 49 47 54 58 51 49
83 68 49 32 21 15 12 10 11 10 10 11 13 15 19 24 26 24 22 21 20 21 22 22 22 22 23 24 24 25 24 23 24 25 26 26 26 25 25 25 24 24 24 25 25 27 29 29 30 33 34 34 34 35 37 39 40 40 38 35 32 31 35 34 31 35 35 32 37 42 42 43 44 44 47 50 52 53 54 55 55 52 52 57 60 55 53
58 40 25 17 13 11 10 11 11 10 11 13 17 22 25 26 24 21 21 21 21 22 22 22 22 22 22 22 23 23 23 23 23 22 22 23 22 22 22 22 23 23 23 25 27 28 30 30 32 33 33 33 36 40 40 37 34 32 29 29 29 30 33 34 38 45 43 38 40 44 44 45 46 47 50 53 54 55 58 61 60 58 59 60 60 61 64
31 20 14 11 10 10 11 11 10 11 14 18 23 25 24 21 20 20 21 21 21 22 22 22 21 20 21 21 21 21 21 21 21 21 21 21 20 21 22 22 22 23 25 26 27 29 31 33 34 34 36 40 40 39 35 31 32 34 35 37 36 36 40 41 45 53 50 42 43 47 48 50 50 51 54 57 59 62 65 67 67 65 64 63 63 69 74
16 12 11 10 11 11 11 11 13 16 20 23 24 21 19 20 21 21 21 21 21 21 20 19 19 19 19 19 20 20 20 20 21 20 21 21 21 22 22 23 24 26 27 28 29 32 33 34 37 40 43 41 35 33 34 36 40 41 40 41 40 41 45 45 48 56 54 48 50 54 54 53 53 56 60 63 66 68 67 67 69 67 66 67 71 75 77
11 11 11 11 10 10 12 16 20 22 23 22 20 20 21 23 22 21 22 21 19 19 18 18 19 19 19 19 19 19 20 21 21 21 22 22 23 24 25 27 27 28 30 31 32 32 34 38 42 41 38 34 33 36 40 41 42 43 44 46 47 47 48 48 50 56 58 57 61 64 61 58 59 62 65 67 68 65 62 64 68 68 67 71 76 77 75
12 11 10 10 12 16 20 23 23 22 22 21 22 24 24 23 22 21 20 19 18 18 18 18 18 19 19 20 20 21 22 22 22 23 24 25 26 28 29 29 30 30 31 31 32 35 40 41 37 32 32 35 37 39 40 41 44 47 49 50 50 50 52 52 52 57 63 64 65 67 65 62 63 64 65 66 64 60 61 65 70 72 71 72 75 73 71
11 10 12 16 20 23 23 22 21 22 24 25 25 24 23 21 20 19 18 18 18 18 18 19 19 20 21 21 22 23 24 25 26 26 27 28 29 29 30 30 30 30 30 33 38 40 38 33 29 33 37 37 36 38 41 44 47 49 50 52 53 53 53 52 53 58 64 65 65 67 67 64 62 62 63 62 59 59 62 67 73 76 74 74 73 72 74
13 17 21 23 23 22 22 22 24 25 26 25 23 22 21 20 19 18 18 19 19 19 20 21 21 22 23 24 25 26 26 27 28 28 28 29 29 29 29 29 29 32 36 40 39 34 30 30 33 38 38 36 37 41 45 47 49 52 53 53 53 52 52 53 55 58 62 63 64 66 66 62 60 60 60 58 56 59 62 70 82 86 82 81 82 83 87
23 23 23 22 22 23 25 26 26 25 24 22 21 20 20 19 19 19 19 20 20 21 22 23 24 25 25 26 26 26 26 26 27 27 27 27 26 27 28 31 35 40 40 35 30 29 33 36 36 36 37 40 42 43 45 48 50 53 54 53 52 54 55 56 58 60 61 61 63 64 62 60 60 60 59 58 61 66 67 77 96 102 93 87 87 87 90
23 22 22 23 25 27 27 26 25 23 22 21 20 20 20 20 20 20 21 22 22 23 24 24 25 26 26 27 26 26 25 25 25 25 24 24 27 31 35 39 40 37 30 26 30 36 39 37 35 36 40 43 43 43 46 49 51 54 57 57 57 58 59 60 60 61 60 59 61 62 61 63 65 64 62 62 67 73 72 77 94 100 94 89 87 85 85
23 24 26 27 27 26 25 24 23 22 21 21 21 21 21 21 21 21 22 22 23 24 25 25 26 27 26 26 25 24 23 23 23 24 27 32 37 40 41 37 30 25 26 31 37 39 38 36 38 40 42 44 47 49 50 53 58 62 63 62 60 60 60 61 60 59 58 59 60 61 64 68 68 65 65 67 72 77 77 78 86 93 94 92 86 80 76
26 26 27 26 25 25 24 23 23 22 22 22 22 21 21 21 22 22 23 24 25 25 26 26 26 25 24 23 23 22 22 23 27 33 38 42 42 37 30 24 23 27 34 38 38 36 37 40 42 42 44 47 50 53 56 61 65 66 63 60 58 58 59 60 60 60 61 62 65 67 71 73 71 70 73 76 80 83 82 82 88 96 98 91 81 75 73
26 26 25 25 25 25 24 24 23 23 22 22 21 21 21 21 22 24 25 25 26 26 25 25 24 22 21 21 22 23 27 33 39 42 41 37 31 24 21 24 30 36 39 39 38 38 41 43 44 44 45 47 50 54 59 63 64 63 60 57 57 59 60 61 60 60 62 67 73 78 80 81 81 81 83 85 87 88 86 86 89 93 92 85 78 76 73
26 25 25 25 25 25 24 23 22 21 21 21 21 21 22 23 24 25 26 25 25 24 23 22 21 21 21 23 25 30 36 41 41 37 30 24 20 21 26 33 39 42 41 40 41 43 44 43 45 47 49 52 56 60 61 61 60 59 57 56 58 60 60 60 59 60 65 73 78 82 86 89 89 86 86 89 91 90 88 88 87 84 81 79 78 76 70
24 24 24 24 23 23 22 21 21 21 21 21 23 23 24 25 25 25 24 23 22 21 21 21 22 23 25 28 32 36 37 35 31 25 20 20 23 29 35 40 43 44 43 43 46 49 49 47 47 51 56 61 64 63 60 57 56 57 58 57 58 59 58 57 57 60 69 78 82 84 90 94 92 87 88 92 92 88 84 83 84 83 79 75 73 70 64
24 23 23 22 22 22 22 22 22 22 23 23 24 25 25 24 24 22 22 21 20 20 21 23 25 27 30 32 34 34 30 25 21 19 20 24 31 37 43 46 46 47 48 50 52 54 56 55 56 59 64 66 65 62 59 58 58 59 60 58 57 58 56 55 58 67 78 84 85 86 89 91 89 87 89 93 90 83 77 75 80 83 80 72 67 65 61
23 23 22 22 23 23 23 24 24 24 25 25 25 24 23 22 21 21 21 21 21 22 24 27 30 32 32 32 30 27 23 20 20 21 25 32 38 43 46 48 49 50 52 56 59 60 62 64 66 67 67 65 62 60 60 60 61 61 60 59 58 56 54 58 67 78 86 88 87 85 87 90 89 87 88 88 85 80 77 76 78 79 76 69 65 63 60
23 24 24 24 25 25 26 26 26 25 25 24 23 22 21 20 20 20 21 23 26 27 29 32 32 31 29 27 25 22 20 20 22 26 32 40 45 47 48 49 50 53 58 64 68 70 71 71 70 67 64 62 61 61 62 63 63 63 61 58 56 54 57 67 80 88 90 87 83 83 87 94 95 93 92 90 87 85 83 82 80 77 74 71 67 63 59
25 25 26 26 27 26 26 25 24 24 22 22 21 20 20 21 22 24 26 28 30 31 31 29 27 24 24 24 22 20 21 22 26 33 40 45 48 49 49 50 53 59 65 69 72 72 70 66 62 59 60 62 63 63 64 64 64 62 60 57 54 57 68 82 90 92 88 82 81 86 93 100 101 98 97 99 99 97 92 87 83 79 77 74 69 60 51
27 27 27 27 26 25 24 23 22 22 21 20 21 22 23 26 28 28 29 28 27 25 23 21 20 20 22 22 21 21 23 26 32 39 44 46 48 50 51 54 58 63 67 67 67 64 60 57 57 59 62 65 65 64 65 64 63 61 57 54 57 69 84 92 91 88 86 84 88 94 101 104 101 96 97 103 107 105 98 89 82 77 73 68 61 51 40
28 27 26 25 24 23 22 22 21 21 22 23 25 27 28 28 26 24 22 20 18 18 17 18 19 20 21 21 21 23 26 31 37 42 45 47 50 52 54 57 61 63 65 63 60 56 54 56 60 63 65 66 65 65 65 64 62 58 54 58 72 86 92 90 87 86 87 87 90 96 103 108 106 101 99 100 97 92 87 82 77 72 65 58 51 43 33
26 25 24 23 23 22 22 23 24 25 26 27 27 26 23 20 18 17 16 16 16 17 17 18 19 20 21 21 22 25 30 35 41 44 47 50 53 54 56 59 61 62 61 58 55 54 57 62 65 66 67 67 67 66 65 62 57 54 60 74 87 91 86 81 82 86 88 90 92 97 103 108 109 106 100 93 85 80 78 77 74 67 58 50 44 37 27
25 24 24 23 24 24 24 26 26 26 25 23 20 18 16 15 15 15 16 17 17 17 18 19 19 20 21 22 24 28 33 39 44 48 51 53 54 55 57 58 59 59 57 56 57 60 64 67 69 70 69 68 67 65 61 56 55 63 77 87 87 81 78 78 81 86 91 95 97 97 97 97 97 94 88 81 77 75 76 74 69 62 53 44 35 26 20
25 25 25 25 26 26 25 24 23 20 18 16 15 15 15 15 16 16 17 17 17 18 18 19 19 21 21 23 26 31 37 43 47 51 53 54 55 56 57 58 58 58 58 61 64 66 69 72 73 72 70 67 64 59 55 57 67 79 85 83 77 75 77 79 82 88 94 96 96 95 93 90 86 81 76 73 71 71 71 69 63 54 45 34 24 18 16
26 26 26 26 25 23 21 19 17 16 16 16 16 17 16 16 17 17 17 18 18 18 18 19 20 21 22 24 29 35 42 48 51 53 55 57 57 58 58 59 61 63 65 68 69 71 74 75 72 70 67 62 57 55 59 70 80 82 78 75 75 77 79 82 86 92 97 97 96 93 88 82 77 74 73 71 68 65 63 60 53 42 31 22 17 16 17
27 27 26 24 21 19 18 17 17 17 18 18 17 17 17 17 18 18 18 18 18 18 19 20 20 21 23 28 34 41 47 52 55 57 58 58 59 59 60 63 67 69 71 72 73 73 72 71 68 65 60 56 55 62 72 78 78 75 73 76 79 82 85 88 91 94 97 97 93 88 82 76 72 71 71 69 65 60 54 47 37 26 19 16 16 18 18
27 27 24 21 18 17 18 18 19 19 18 18 18 18 18 18 18 18 19 19 19 20 20 20 21 23 26 32 38 44 50 54 57 59 59 59 60 63 65 67 71 73 74 73 71 68 67 66 63 57 54 57 66 74 76 74 73 74 77 81 85 89 93 95 95 95 94 90 85 81 79 77 74 72 68 63 56 47 38 29 21 16 16 17 18 18 17
27 25 21 19 18 19 20 20 20 19 19 19 19 19 19 19 19 19 19 20 20 21 21 22 23 26 30 36 43 48 51 55 57 59 60 62 63 65 68 71 73 72 70 67 65 64 62 58 54 53 60 69 73 72 70 72 77 81 84 87 92 96 97 97 96 92 87 81 77 75 77 77 75 69 59 48 38 29 21 17 15 16 18 19 18 17 15
27 23 20 19 20 21 21 20 20 20 20 20 19 19 19 19 19 20 20 21 21 22 22 23 25 28 34 41 47 50 51 54 58 62 64 65 66 67 69 70 68 66 64 63 61 58 53 51 55 63 69 71 69 70 74 79 83 85 87 92 96 97 96 94 89 82 78 77 75 73 71 67 59 49 38 29 22 17 14 15 16 18 19 18 16 14 12
26 23 21 21 22 23 22 21 20 20 20 20 20 20 20 20 21 21 21 21 22 23 24 24 26 30 35 41 47 50 52 55 60 64 66 66 66 65 64 64 63 62 60 56 52 50 52 59 65 68 68 69 72 77 82 85 87 90 94 96 96 93 89 85 80 76 75 74 71 66 59 49 39 30 23 18 15 15 17 18 18 18 17 15 13 11 10
26 23 22 22 23 24 23 22 21 21 21 21 21 21 21 21 22 22 22 22 23 24 25 26 27 30 34 39 44 46 48 52 56 60 62 63 61 60 60 60 57 54 50 48 50 56 63 66 66 66 69 75 80 83 86 91 95 97 97 94 89 83 78 74 72 71 69 65 59 51 42 33 25 19 16 15 16 18 19 18 16 15 13 11 10 10 10
27 25 24 24 24 24 24 23 22 22 22 21 22 22 22 22 22 22 23 23 23 24 25 26 28 30 33 37 42 44 45 49 53 54 56 57 56 55 53 49 46 47 50 55 61 65 66 65 66 72 78 81 85 89 94 96 96 93 89 83 77 72 68 66 63 60 57 52 45 37 29 23 19 16 16 18 19 17 16 14 13 11 10 9 9 9 9
29 27 26 26 26 26 25 25 24 23 22 22 22 22 22 23 23 23 23 23 24 25 26 26 27 28 30 33 38 41 43 45 47 48 49 49 47 44 44 45 50 56 61 64 64 64 66 70 76 82 85 88 93 96 96 93 88 83 77 72 68 64 61 57 53 48 43 38 32 26 21 18 18 19 20 19 17 15 13 11 10 9 8 8 8 8 8
31 29 29 29 28 27 27 27 26 25 24 23 23 24 24 24 24 24 24 25 25 25 26 27 27 28 30 31 34 37 38 39 41 41 41 41 43 46 52 58 63 64 63 62 64 68 75 82 86 89 92 94 95 93 88 83 78 73 68 65 61 58 53 48 42 36 30 24 20 17 16 17 18 18 17 15 13 12 10 9 8 8 8 8 7 7 7
32 31 31 31 30 29 29 29 28 27 26 26 26 26 26 26 26 26 25 26 26 26 27 27 28 29 30 31 34 36 38 38 39 41 43 49 55 60 64 65 65 63 64 69 75 80 85 88 90 92 93 92 88 84 79 74 70 66 62 58 53 49 45 40 34 27 21 17 16 16 16 16 15 13 12 11 10 9 9 8 9 8 8 7 7 6 6
33 32 31 32 32 31 31 32 31 30 30 29 29 29 29 28 28 28 27 27 28 29 30 30 32 34 35 36 38 39 40 42 46 52 59 64 66 65 64 65 68 72 77 83 87 88 89 90 90 90 88 83 79 74 70 66 63 59 55 50 46 43 38 32 25 21 19 19 19 19 17 15 13 11 10 9 8 8 8 8 8 8 7 7 6 5 5
33 33 33 33 33 32 33 33 33 33 32 32 32 32 32 31 31 32 33 32 32 34 35 36 37 38 39 39 41 45 50 57 63 67 69 69 67 67 70 75 80 83 87 88 88 87 87 87 86 83 79 74 69 66 62 59 55 51 47 43 39 33 28 24 22 22 22 21 19 17 15 13 11 10 9 9 8 8 8 8 7 7 6 5 5 5 5
34 34 34 34 34 34 34 34 34 35 34 34 34 35 35 35 36 36 37 36 36 37 38 40 40 41 43 47 53 60 67 71 71 70 69 69 71 76 81 84 86 86 86 86 85 84 84 82 79 75 70 65 62 59 55 50 46 42 38 33 28 24 24 24 23 22 20 18 16 14 13 11 11 10 9 9 9 9 8 7 6 6 5 5 5 5 5
35 34 34 34 35 35 34 34 34 35 35 35 35 35 35 36 36 37 37 37 38 38 38 39 42 47 54 62 68 71 71 69 68 69 72 76 79 82 84 84 84 84 83 83 81 80 78 73 69 65 62 59 55 51 45 39 35 31 28 25 24 25 25 23 21 19 17 15 14 12 11 10 10 10 10 10 9 8 7 6 6 5 5 5 5 5 5
37 36 35 35 35 35 35 35 35 35 35 35 34 34 34 34 34 35 36 36 36 38 41 47 54 62 68 71 71 69 67 67 69 73 77 79 81 81 82 82 82 81 80 78 76 72 69 65 62 59 56 51 46 39 33 28 25 23 23 25 26 25 23 20 18 17 15 13 12 11 11 11 11 11 10 9 8 7 6 5 5 5 5 5 5 5 5
39 38 38 36 36 36 36 36 36 36 36 36 35 35 36 36 36 36 37 38 41 48 57 66 72 74 73 70 66 65 66 69 72 76 78 80 80 80 80 80 78 76 74 72 69 65 62 60 57 52 46 38 31 26 23 21 21 22 24 25 24 21 18 17 15 14 12 12 11 11 11 11 11 10 9 8 7 6 5 5 5 5 5 5 5 6 5
43 42 41 40 39 39 38 38 38 38 38 38 38 37 37 37 37 39 43 49 58 66 72 74 72 68 64 62 62 65 69 74 77 79 80 79 78 78 77 75 73 71 68 65 62 60 57 53 47 39 31 25 21 20 20 21 22 23 23 21 19 17 15 14 13 12 12 11 11 11 11 11 10 9 8 7 6 5 5 5 5 5 5 5 5 5 5
50 47 44 42 42 41 41 40 40 40 40 40 40 40 40 42 46 51 58 65 70 71 69 65 61 59 60 64 68 73 77 79 79 79 77 76 75 74 72 70 68 66 63 60 57 54 48 40 32 25 21 19 19 20 20 21 21 21 20 17 16 15 14 13 13 12 12 11 11 12 11 10 9 8 7 6 6 5 5 5 5 5 5 5 5 4 4
61 54 50 48 46 44 43 43 43 43 43 44 45 47 51 55 60 64 67 68 67 64 61 59 60 63 69 74 77 78 78 77 76 75 74 73 71 70 68 66 64 62 59 56 52 44 34 26 21 19 19 19 19 19 20 20 20 19 17 16 15 15 14 13 13 12 12 12 12 11 10 8 8 7 6 6 6 6 5 5 5 5 5 5 4 4 3
74 67 60 55 50 47 46 45 44 45 46 49 51 55 58 62 64 65 65 63 62 62 63 66 70 75 79 79 78 76 75 74 73 73 71 69 68 67 65 63 61 59 55 49 39 28 22 19 18 19 19 19 19 19 19 19 18 17 16 16 15 14 13 13 13 12 12 12 10 9 9 8 7 6 6 6 6 6 6 5 5 5 5 5 4 3 3
86 80 73 66 60 55 50 48 47 47 48 51 54 57 59 61 63 63 63 64 67 70 74 77 79 78 77 75 74 73 73 71 70 70 68 67 67 65 62 61 58 54 46 35 25 19 18 18 18 19 19 18 18 19 19 19 18 17 16 16 15 14 14 14 14 13 12 11 9 9 8 7 6 6 6 6 6 6 6 5 5 5 5 5 4 3 4
86 84 80 76 71 66 60 56 54 53 54 56 58 60 62 63 65 67 70 74 77 79 79 79 77 75 74 74 74 72 71 69 67 67 67 66 65 63 61 58 52 43 32 23 18 17 18 19 18 18 18 17 18 19 20 19 18 16 16 16 16 15 15 15 14 12 11 9 8 8 7 7 6 6 5 6 6 6 6 6 6 6 6 5 4 4 4
85 82 79 75 72 69 67 64 63 62 62 63 65 66 68 71 74 78 80 80 79 78 76 75 75 75 75 74 72 70 68 67 66 66 66 65 64 62 58 51 40 29 21 18 18 19 19 19 18 17 16 17 18 20 20 19 18 17 17 17 17 16 15 14 12 11 10 9 8 8 7 6 6 6 6 6 6 6 6 7 7 6 6 5 4 4 4
Wind_Speed
36 36 36 36 38 39 40 40 38 35 31 27 24 21 19 18 17 16 16 16 15 15 15 15 16 16 17 17 18 18 19 19 19 20 21 22 23 24 26 27 28 30 31 33 34 35 36 39 40 40 40 41 42 42 43 44 44 45 46 47 49 49 49 48 49 50 53 57 58 58 57 57 58 58 56 54 51 49 48 47 47 48 51 54 54 51 54
35 36 36 37 39 40 39 37 34 30 26 23 21 19 17 16 16 15 15 15 15 15 16 17 17 18 18 19 19 20 20 21 21 22 23 24 25 26 27 28 30 31 32 33 35 35 36 39 41 40 40 41 42 42 43 44 45 45 46 47 48 49 50 50 48 47 49 52 56 56 55 55 56 55 51 48 47 47 48 50 51 51 52 57 58 55 57
36 36 37 39 40 39 37 33 29 25 22 20 18 17 16 15 15 15 15 15 16 17 17 18 18 19 19 20 21 22 22 23 23 24 25 26 27 28 29 30 31 33 33 34 35 36 36 38 39 39 39 40 41 41 42 43 44 45 45 46 48 49 51 51 49 47 46 46 46 46 45 46 47 47 46 46 47 50 52 53 55 54 53 57 62 59 58
36 38 39 39 38 35 31 27 24 21 19 18 16 15 14 14 14 15 16 16 17 17 18 18 19 20 20 21 22 23 24 25 25 26 27 28 29 30 31 32 33 33 34 34 35 35 36 36 37 37 38 38 39 40 41 42 43 44 45 46 46 46 48 49 48 46 44 40 37 35 35 37 41 43 45 47 49 52 55 57 58 58 56 58 65 66 62
38 39 38 36 33 29 26 23 20 18 17 16 15 14 13 14 15 15 16 17 18 18 19 19 20 21 22 23 24 25 26 27 27 28 29 30 31 31 32 32 33 33 33 34 34 34 35 35 35 35 36 37 38 39 40 42 42 42 42 41 39 39 40 40 39 39 38 36 35 35 36 38 41 44 47 50 53 55 58 61 62 63 62 62 66 70 70
38 37 34 30 26 23 21 19 17 16 15 14 13 13 13 14 15 16 17 18 18 19 20 21 22 23 23 24 25 26 27 28 29 29 30 30 31 32 32 32 32 32 32 32 32 33 34 34 34 35 35 36 37 38 39 38 37 35 33 32 31 30 31 32 33 36 37 37 37 39 41 42 44 47 50 53 56 59 62 65 67 68 68 68 69 72 75
34 30 27 23 21 20 18 16 15 14 13 13 13 13 14 15 16 17 18 19 19 20 21 22 23 24 25 26 27 27 28 29 30 30 30 31 31 31 31 32 31 31 31 31 30 31 32 33 34 35 35 36 36 35 33 30 28 27 27 27 27 28 29 31 33 37 40 41 41 43 45 47 49 51 54 57 60 63 65 69 71 72 72 74 74 75 78
27 23 21 19 18 17 15 13 13 12 12 13 13 14 15 16 17 18 19 20 21 21 22 23 24 25 26 27 27 28 29 29 30 31 31 31 31 31 31 31 30 30 29 29 29 30 31 32 33 33 34 33 30 26 25 23 24 25 26 27 28 29 30 33 35 39 44 45 47 49 50 51 53 55 58 61 62 65 68 71 74 75 76 78 79 80 82
21 19 17 16 15 14 12 11 11 12 12 13 14 15 16 18 19 19 20 21 22 23 24 25 26 27 27 28 29 29 29 30 30 31 31 30 31 31 30 30 30 29 29 30 30 31 31 31 31 30 28 25 21 20 20 22 23 25 27 28 30 32 33 35 37 41 46 48 50 53 54 55 56 58 60 63 65 67 71 75 78 79 79 80 83 85 87
17 15 14 13 12 10 9 10 11 12 13 15 16 17 18 19 20 21 21 23 24 24 25 26 27 28 28 29 29 30 30 30 30 30 30 30 30 30 30 30 30 30 30 30 30 29 29 29 27 23 19 18 18 19 20 22 24 26 29 31 33 35 36 38 40 44 48 51 52 55 57 58 59 61 63 65 68 70 73 77 82 84 84 84 87 90 92
13 12 10 9 8 8 9 10 12 13 15 16 17 19 20 21 22 22 23 24 25 26 26 27 28 28 29 29 30 30 30 30 30 30 30 30 30 30 31 31 31 31 30 29 29 28 27 24 19 16 16 17 19 20 21 24 26 29 31 34 36 38 40 42 44 46 50 53 55 57 60 61 62 64 67 69 71 73 74 79 84 88 88 90 92 95 98
9 8 7 7 7 9 10 12 13 15 16 18 19 20 21 22 23 23 24 25 26 26 27 28 28 29 29 29 29 30 30 30 31 31 31 31 31 32 32 31 31 30 29 28 27 24 20 16 15 15 17 19 20 21 24 26 29 32 34 37 39 42 44 46 47 49 52 55 57 60 63 65 66 68 70 73 75 76 77 80 86 91 92 94 97 99 102
6 6 6 7 9 10 12 14 15 17 18 20 21 22 22 23 24 24 25 26 27 27 28 29 29 29 30 30 30 31 31 32 32 32 32 32 32 32 31 30 29 28 28 26 21 16 14 14 15 17 19 21 23 24 27 29 32 35 38 40 43 45 47 49 51 53 55 58 61 64 67 69 70 72 75 77 79 81 81 82 86 93 95 97 100 103 105
5 7 8 10 11 12 14 15 17 18 20 21 22 23 23 24 25 26 26 27 28 28 29 29 30 30 31 32 32 32 32 32 32 32 32 32 31 30 29 28 28 26 23 18 14 12 13 16 18 19 21 24 26 28 30 33 36 39 42 44 47 49 52 54 56 58 60 62 64 68 70 73 75 76 79 81 82 85 86 85 88 93 98 100 103 106 108
7 9 10 11 13 14 16 17 18 20 21 22 23 24 24 25 26 27 27 28 28 29 29 30 31 32 32 32 33 33 33 32 32 32 31 30 30 29 28 27 24 20 15 12 11 13 15 18 20 22 25 27 30 32 34 37 40 43 46 48 51 53 56 58 60 62 65 67 69 71 73 75 78 80 83 85 86 89 91 91 92 97 101 104 107 110 112
10 11 12 13 14 16 17 19 20 21 22 23 24 25 25 26 26 27 28 28 29 30 30 31 32 32 32 32 32 32 32 32 32 31 30 29 28 27 25 21 16 12 10 11 13 15 17 20 22 24 26 29 32 35 37 40 43 47 49 52 54 57 60 62 65 68 70 72 74 77 78 79 81 84 86 88 90 92 95 96 98 101 104 108 112 114 117
11 12 13 15 16 17 19 20 21 22 23 24 25 26 26 26 27 28 29 29 30 30 31 31 32 32 32 32 32 32 32 32 32 31 29 28 25 22 18 13 10 10 12 14 16 18 20 23 25 27 29 31 34 37 40 43 46 49 53 55 58 61 64 66 69 71 74 76 78 80 82 84 85 87 89 91 93 96 98 100 102 105 108 112 115 118 121
13 14 15 16 17 19 20 21 22 23 24 25 26 27 27 27 28 29 29 30 30 30 31 31 32 32 33 33 33 33 33 32 31 29 26 23 18 14 10 9 10 12 14 16 19 21 23 25 27 30 33 35 37 40 43 45 49 53 56 58 61 64 67 69 72 74 77 79 81 82 85 87 89 91 93 95 96 99 102 105 107 110 112 115 119 122 126
14 15 16 18 19 20 21 22 23 24 25 26 27 28 28 28 29 29 30 30 31 31 31 32 32 33 34 34 35 34 32 29 27 24 20 15 11 9 9 11 13 15 17 19 22 24 26 28 30 33 36 39 41 44 47 49 52 56 59 61 64 67 69 72 74 77 79 81 83 84 86 89 93 95 97 100 101 103 106 108 111 115 117 120 123 127 131
16 17 18 19 21 22 23 24 25 26 27 27 28 29 29 29 30 30 30 30 31 32 32 33 34 35 36 35 34 32 29 25 22 17 13 9 8 9 11 13 15 18 20 23 25 27 29 32 34 36 39 42 45 48 51 54 57 60 63 65 67 70 73 75 77 79 81 83 85 87 89 92 96 97 99 102 106 109 111 113 115 119 123 126 130 133 136
18 19 20 21 22 23 25 26 26 27 28 28 29 29 30 30 30 30 31 31 32 33 34 35 36 36 36 34 31 28 24 20 16 12 9 8 10 12 14 16 18 21 23 25 28 30 32 35 38 40 43 46 49 52 55 58 60 63 66 68 71 73 75 77 79 81 83 85 88 90 93 96 100 102 103 106 110 114 117 120 122 125 129 133 135 137 138
19 21 22 23 24 25 25 26 27 28 28 29 29 30 30 30 31 31 32 33 34 35 36 37 37 36 34 30 27 24 20 15 11 9 9 11 12 14 17 19 21 23 26 28 31 33 36 39 42 44 47 50 52 55 58 61 64 67 70 72 74 76 78 79 81 84 86 89 91 93 96 100 104 108 109 111 115 118 122 125 129 132 135 137 138 139 139
21 22 23 24 25 25 26 27 28 28 29 30 30 31 31 32 32 33 34 35 36 36 36 36 35 33 30 26 23 19 15 11 10 10 11 13 15 17 19 22 24 26 28 31 33 36 39 42 45 48 50 53 56 58 61 64 67 70 73 75 77 78 80 82 84 86 89 92 95 98 100 104 108 111 114 116 118 121 125 128 132 134 137 138 139 139 138
22 23 24 25 25 26 27 28 28 29 30 30 31 32 32 33 34 35 36 36 36 35 34 33 31 27 25 22 19 15 12 11 11 13 14 16 18 20 22 24 27 29 32 34 37 40 43 46 49 51 54 56 59 62 64 67 70 73 76 78 79 80 82 84 87 89 92 95 98 100 103 106 110 113 116 118 120 123 126 130 132 135 136 137 138 138 137
23 24 24 25 26 27 28 28 29 30 31 31 32 33 34 34 35 35 35 34 33 32 30 28 25 22 20 18 15 12 12 12 13 15 17 19 21 23 25 27 30 32 35 38 41 44 46 49 52 54 57 60 62 65 68 71 74 76 78 79 81 82 85 87 89 93 96 98 100 102 104 108 113 116 117 119 122 125 128 131 134 136 137 137 137 137 136
24 24 25 26 27 27 28 29 30 30 31 32 32 33 33 33 33 32 31 30 29 27 25 23 21 19 17 15 13 12 13 14 16 17 19 21 24 26 28 31 33 36 39 42 45 47 50 53 55 58 60 63 66 69 72 74 77 79 80 81 83 85 88 90 92 95 99 102 104 105 105 107 111 115 118 121 124 127 130 133 135 137 137 137 136 135 134
24 25 26 26 27 28 29 29 30 30 31 31 31 31 31 30 30 29 28 27 25 24 23 21 19 17 15 14 13 14 15 16 18 20 22 24 27 29 31 34 37 40 43 46 48 51 53 56 59 61 64 67 69 72 75 77 79 80 82 84 86 89 91 94 96 98 101 104 107 109 109 109 112 116 121 125 128 131 132 134 136 137 137 136 134 132 130
24 25 26 27 27 28 29 29 29 29 30 30 29 29 28 28 27 27 26 25 24 23 22 20 18 16 15 14 15 15 17 19 21 23 25 27 30 32 35 37 40 43 46 49 51 54 56 59 62 65 67 70 73 75 77 78 80 82 84 87 90 93 95 97 99 101 103 106 109 113 115 117 119 123 126 130 132 133 134 135 135 135 135 134 132 129 126
24 25 26 27 27 27 28 28 28 28 28 28 27 27 27 27 26 26 26 25 24 23 21 19 18 16 15 15 16 17 19 21 23 25 28 30 33 35 38 41 44 46 49 51 54 56 59 62 65 68 71 74 76 77 78 79 82 85 88 91 94 97 99 102 104 106 108 110 113 116 120 123 126 129 131 134 135 136 135 134 134 133 132 130 128 125 123
24 25 25 26 26 26 27 27 26 26 26 26 26 26 26 26 26 26 25 25 24 22 21 19 18 17 17 17 18 20 22 24 26 29 31 33 36 38 41 44 47 49 52 54 57 60 63 66 69 72 74 75 77 78 80 82 85 88 91 94 97 100 103 106 108 110 112 114 117 120 124 128 131 133 134 136 137 136 135 133 131 130 127 125 123 122 121
23 24 24 25 25 25 25 25 25 25 25 25 25 25 25 25 25 25 25 25 24 22 21 20 19 19 19 20 21 23 25 27 29 32 34 36 39 41 44 46 49 52 55 57 60 63 66 69 71 73 75 76 77 80 82 85 88 91 94 97 100 103 106 108 111 114 116 118 120 123 126 130 133 134 135 135 134 133 132 130 127 125 123 121 121 120 120
22 23 23 24 24 24 24 23 23 24 24 24 25 25 25 25 25 25 25 24 23 23 22 21 21 21 22 23 24 26 28 30 32 35 37 39 42 44 47 49 52 55 58 61 64 66 69 71 72 73 75 77 79 82 86 89 91 94 97 100 102 105 108 110 113 116 119 122 125 126 128 129 130 131 131 131 130 128 127 125 123 121 120 119 119 119 119
21 21 22 22 22 22 22 22 23 23 24 24 24 25 25 25 25 25 25 24 23 23 23 23 23 23 24 26 27 29 31 33 35 38 41 43 45 47 50 52 55 59 61 64 67 68 70 71 72 74 76 79 83 86 89 92 94 97 100 102 105 107 110 113 116 119 123 126 129 130 130 130 129 129 128 127 126 125 124 122 121 120 119 118 118 117 116
20 20 20 20 20 21 21 21 22 23 23 24 24 25 25 25 26 26 25 25 24 24 24 25 25 26 27 29 31 32 34 36 39 41 44 46 48 51 53 56 59 62 64 66 68 69 70 71 73 76 80 83 86 88 91 94 98 100 103 105 108 110 113 116 119 122 125 127 129 130 130 129 128 127 126 125 124 123 122 121 120 119 117 116 115 114 112
19 19 19 19 19 19 20 20 21 22 22 23 24 24 25 25 25 25 25 25 25 25 26 27 28 29 30 32 34 36 37 39 42 44 47 50 52 54 56 59 61 63 65 66 67 69 71 74 77 80 83 86 89 92 94 97 100 103 106 108 111 114 116 118 120 122 124 126 127 126 126 126 126 125 124 123 122 121 120 119 118 117 116 114 113 111 110
18 18 18 18 18 19 20 20 21 21 22 23 23 23 24 24 25 25 25 25 26 26 27 28 29 31 33 35 37 39 41 42 45 47 50 52 54 56 58 60 61 62 64 66 68 71 74 78 80 83 86 89 92 95 98 100 103 106 109 112 115 118 120 122 123 123 123 123 122 122 122 122 123 122 121 120 119 119 118 117 116 115 113 111 109 107 106
18 18 18 18 18 19 19 20 21 21 22 22 23 23 23 23 24 25 25 26 26 27 28 29 31 32 34 36 39 41 43 44 46 49 51 53 55 56 58 59 60 62 65 68 71 75 78 81 84 87 90 92 95 98 101 104 107 111 114 117 119 122 124 125 124 123 120 118 118 118 117 117 116 115 115 114 115 115 114 114 112 111 109 107 105 104 103
17 17 18 18 18 19 19 20 21 21 22 22 23 23 23 23 24 24 25 26 27 28 29 30 32 33 35 36 38 41 42 44 46 48 50 51 53 55 57 60 63 66 69 72 75 78 81 84 87 90 93 95 98 101 105 109 112 116 119 121 123 124 125 124 123 121 119 118 117 116 114 112 110 110 110 109 109 110 110 110 109 109 108 107 105 104 103
17 17 18 18 18 19 19 20 20 21 22 22 22 23 23 23 24 25 25 26 27 29 30 31 32 34 35 37 38 40 42 43 45 47 49 51 54 57 60 64 67 70 73 76 79 81 84 86 90 93 96 99 102 106 110 113 117 119 122 123 124 123 122 121 120 120 120 120 119 118 117 115 113 112 110 109 107 106 107 107 108 108 107 107 106 104 102
18 18 18 18 18 19 19 19 20 21 21 21 22 22 23 24 24 25 26 27 28 29 31 32 33 34 36 37 38 40 42 44 46 49 52 55 58 62 65 68 71 74 77 79 82 85 87 90 93 96 100 103 107 110 113 117 119 121 122 122 120 119 118 117 117 117 118 118 118 118 117 117 116 115 113 111 108 106 106 106 106 107 107 106 105 103 101
18 18 18 18 19 19 19 19 20 21 21 21 22 23 24 24 25 26 27 28 29 30 31 32 33 34 35 37 39 42 45 47 50 54 57 60 63 66 69 71 74 77 80 83 86 88 91 94 97 101 104 108 111 113 116 118 119 119 118 117 116 114 114 113 113 114 114 114 115 115 115 115 115 114 113 112 110 108 107 106 106 106 105 104 102 101 99
20 19 19 19 19 19 19 19 20 21 21 22 22 23 24 25 26 26 27 28 29 30 32 34 35 37 39 41 44 47 50 53 55 58 61 64 66 69 72 74 77 80 83 86 89 92 95 98 101 105 108 111 113 115 116 117 116 114 113 112 111 110 109 109 109 111 112 112 112 113 113 113 113 113 112 111 110 109 108 107 106 104 103 101 100 98 97
21 21 20 20 20 20 21 21 21 21 22 22 23 24 24 25 27 28 29 31 32 33 35 37 39 42 44 46 49 51 54 56 59 61 64 67 69 72 75 78 81 84 87 90 93 96 99 102 105 108 111 113 114 115 114 113 111 110 109 108 106 106 106 107 108 109 110 111 111 112 112 112 112 111 111 110 110 109 109 107 105 102 100 99 97 96 94
23 23 22 22 22 22 22 23 23 23 24 25 25 26 27 28 30 31 32 34 36 37 39 41 44 46 48 51 53 55 57 60 62 65 67 70 73 76 79 82 85 88 91 95 98 101 103 106 108 111 112 113 112 111 110 108 106 104 103 102 103 104 105 106 107 108 108 109 110 110 110 110 110 110 110 110 109 108 106 104 102 100 99 98 96 95 94
26 25 25 25 24 24 24 25 26 26 27 28 29 30 31 32 34 35 36 38 39 41 43 45 47 50 52 54 56 58 61 63 66 69 71 74 77 80 83 86 90 93 96 99 102 104 107 109 110 111 110 109 108 107 106 104 101 100 99 99 101 103 104 105 105 106 107 107 107 108 108 108 108 108 109 108 107 105 103 101 99 98 97 96 95 95 94
28 28 27 27 27 27 27 28 28 29 30 31 32 33 34 36 37 38 40 41 43 44 46 48 50 53 55 57 60 62 65 68 70 73 76 79 81 85 88 91 94 97 100 102 105 106 108 109 109 108 107 105 104 103 101 100 98 98 98 99 101 102 103 103 104 105 106 106 106 107 107 107 107 107 107 106 104 103 101 100 99 98 97 96 94 93 92
32 31 30 29 29 29 29 30 31 31 32 33 35 36 37 39 40 41 42 44 46 47 49 51 54 56 59 62 64 67 69 72 74 77 80 83 86 89 93 96 98 101 103 105 106 107 107 107 106 104 103 102 100 99 98 97 97 97 98 99 100 101 102 103 104 104 105 105 106 106 106 106 106 106 105 104 103 102 101 100 99 98 96 95 93 92 90
34 33 33 32 31 31 31 32 32 33 34 36 37 38 40 41 42 43 45 47 49 51 53 56 58 61 63 66 68 70 73 76 78 82 85 88 91 94 96 99 102 105 106 107 107 107 105 104 102 101 100 99 98 97 97 96 96 96 98 99 100 101 102 103 103 104 105 105 105 105 105 106 105 105 104 104 103 102 101 99 98 96 94 93 93 92 92
36 35 35 35 34 34 34 34 34 35 36 38 39 40 41 43 45 46 48 51 53 55 57 60 62 64 66 69 71 74 77 80 83 86 89 92 95 97 100 102 105 106 107 107 106 104 103 101 100 99 98 97 96 96 96 96 96 97 98 99 100 101 102 103 103 104 104 104 104 105 105 105 105 104 103 102 102 101 100 98 96 95 94 94 94 94 93
36 36 36 36 37 37 37 37 37 38 39 40 41 43 44 46 48 50 52 54 56 58 60 63 65 67 70 72 75 78 81 84 87 90 92 95 98 100 102 104 106 107 107 106 104 102 100 99 98 97 97 97 96 96 96 97 97 97 98 99 100 102 103 103 103 104 104 105 105 105 105 105 104 103 102 101 100 99 98 97 96 95 95 96 96 95 93
37 37 37 37 37 38 39 39 40 41 42 43 44 46 47 49 50 52 54 56 58 61 63 65 68 71 74 77 80 83 86 89 91 93 96 98 101 103 104 105 106 106 105 104 102 101 99 99 98 97 96 96 97 97 97 97 98 98 98 100 101 102 103 103 103 104 105 105 106 106 105 104 103 102 100 99 98 98 97 97 96 96 96 96 95 94 92
38 38 38 38 38 39 40 41 42 43 44 45 46 48 49 51 52 54 56 59 61 64 66 69 72 75 78 82 85 87 90 93 95 97 100 102 103 104 105 106 105 105 104 102 101 100 99 99 98 97 96 96 96 97 98 98 99 99 99 100 101 102 102 103 103 104 104 105 105 105 104 103 102 101 100 99 98 97 96 95 95 95 95 95 94 93 92
Wind_Direction
280 284 286 289 292 294 295 295 295 296 296 296 294 293 293 293 293 293 292 289 289 291 292 293 295 297 300 302 303 303 303 302 300 298 296 294 293 292 291 291 291 290 291 291 292 293 293 293 294 296 298 300 300 301 302 302 303 304 305 305 305 306 305 305 305 306 306 306 306 307 308 310 311 311 313 317 320 322 322 320 319 320 320 318 320 321 317
282 285 288 291 293 294 294 294 294 294 294 293 292 291 291 292 293 292 289 288 291 293 295 297 300 303 306 306 307 306 305 304 302 300 299 298 296 296 295 294 293 293 294 294 295 296 296 295 296 299 301 302 302 303 304 304 305 305 305 305 306 306 306 306 306 306 306 306 306 307 310 312 312 313 317 321 323 322 319 318 318 320 322 320 319 320 319
284 287 290 292 292 292 293 293 293 291 291 290 290 290 291 292 292 290 288 290 293 295 299 304 306 309 310 310 309 308 307 306 305 303 302 300 299 298 297 297 297 297 297 297 297 298 298 298 299 301 303 303 304 305 305 305 305 305 306 307 308 309 308 308 308 307 305 304 306 310 313 313 313 315 320 323 322 320 318 318 319 320 323 321 317 318 320
286 289 290 291 291 291 291 290 289 288 288 288 288 290 292 292 290 288 289 292 296 299 304 307 309 310 310 309 309 308 307 306 305 304 303 302 301 300 299 299 299 299 299 298 299 300 300 301 302 303 304 304 304 305 305 306 307 308 310 310 310 311 309 309 310 310 309 312 318 320 318 316 316 319 322 322 320 319 319 319 319 320 323 322 317 318 321
287 288 289 289 289 289 288 286 286 286 286 286 288 290 291 289 287 288 291 296 300 304 306 308 309 310 310 309 308 307 306 306 305 304 304 303 302 301 300 300 299 299 300 300 301 302 302 303 303 304 304 304 305 306 308 309 311 312 314 315 316 317 315 316 318 316 316 322 325 323 321 320 320 322 323 322 321 320 320 319 320 321 323 322 319 319 320
287 287 287 287 286 285 283 283 284 284 285 286 288 288 287 285 286 290 295 299 303 305 307 309 310 310 309 309 307 306 306 306 305 304 303 302 301 301 300 300 300 301 301 302 302 303 303 304 305 305 305 306 308 311 312 314 317 320 323 326 330 332 328 328 328 322 320 325 325 323 323 323 324 325 324 322 321 321 321 320 321 322 322 321 320 320 320
285 284 284 283 282 280 280 280 282 283 285 287 287 285 285 287 291 296 299 302 305 307 308 309 309 308 308 307 306 306 305 304 304 303 303 302 301 301 301 301 301 302 302 303 304 303 304 304 305 306 308 311 313 315 317 322 327 331 334 335 335 336 331 330 329 323 321 325 326 324 325 325 325 325 324 323 322 322 321 320 320 320 321 321 321 321 319
282 280 280 279 277 276 277 280 284 286 288 289 287 286 289 294 297 300 303 305 307 308 308 307 307 306 306 305 305 305 304 303 303 302 302 302 302 302 303 303 303 304 304 304 303 303 303 305 306 309 311 313 316 320 324 330 333 333 334 332 331 331 329 327 327 323 322 325 326 324 324 325 326 325 324 323 322 321 321 320 319 319 320 321 321 321 320
277 276 275 274 274 276 281 287 291 292 290 289 290 293 296 298 299 302 304 305 306 306 306 306 306 306 306 306 306 305 304 304 304 303 304 304 304 304 305 304 304 304 303 303 303 304 306 307 308 310 312 314 319 325 328 330 331 330 330 328 327 327 326 326 327 324 323 325 325 324 324 325 325 324 322 321 321 321 322 320 319 319 320 321 320 320 320
272 272 272 273 277 285 293 296 294 292 291 292 295 297 297 298 300 302 304 304 304 305 305 306 306 306 307 307 307 307 306 306 305 305 304 304 304 303 303 302 302 302 303 305 306 307 308 308 308 310 313 317 322 325 326 327 328 327 326 324 324 325 325 325 326 325 323 324 324 322 322 323 323 322 321 320 321 322 322 321 319 319 320 321 320 320 321
268 270 273 280 290 298 298 294 290 290 292 294 296 297 297 299 301 302 304 304 304 305 306 307 307 308 308 308 308 307 306 305 304 303 302 302 301 301 301 301 303 305 307 308 308 307 307 307 310 313 315 318 322 324 325 325 324 323 322 322 322 323 324 324 325 324 322 322 322 321 320 321 322 321 321 320 321 322 322 321 319 318 320 321 321 321 321
269 277 287 295 298 295 290 288 289 291 294 295 296 296 299 301 302 304 305 305 306 307 308 308 308 308 308 307 305 304 302 301 301 300 300 300 300 301 303 305 307 308 308 307 307 307 307 308 312 315 315 318 321 323 322 322 321 320 320 321 321 322 322 323 323 322 321 320 320 320 320 321 322 321 321 321 321 321 322 322 319 318 320 321 320 320 320
286 293 295 292 288 286 286 289 292 294 295 296 297 298 301 304 305 306 307 307 307 308 308 308 307 307 305 303 301 300 300 300 300 300 300 301 303 305 307 308 308 307 306 306 306 307 308 309 313 316 317 318 319 320 320 320 319 319 319 320 320 321 321 321 321 320 320 320 320 320 320 321 322 321 321 321 322 321 322 322 319 318 319 320 319 319 319
293 288 283 282 283 287 290 292 294 295 296 298 300 302 304 306 306 306 307 307 307 307 307 306 305 303 301 300 300 300 300 300 301 302 304 306 307 308 308 307 306 305 305 306 307 307 308 310 314 317 317 317 317 318 319 319 319 319 319 319 320 320 320 320 320 320 320 321 321 321 321 322 322 321 321 321 321 320 321 321 319 317 318 318 318 318 318
279 278 280 284 288 292 293 294 295 296 298 300 302 303 304 305 305 305 306 306 306 305 304 303 301 300 299 299 300 300 301 302 304 306 308 309 309 308 306 305 305 305 306 305 305 306 308 311 314 316 316 317 318 319 320 320 320 319 319 319 319 320 320 319 320 320 321 321 321 321 322 322 321 321 321 321 321 320 320 320 319 318 318 318 318 318 318
278 282 286 291 294 295 296 296 297 298 300 301 302 302 303 304 304 304 304 304 303 302 301 301 300 299 299 300 300 302 303 306 308 310 310 309 307 306 305 305 305 303 302 302 304 307 309 311 312 313 315 316 317 319 319 319 319 318 317 318 319 320 320 320 321 321 322 322 322 322 322 321 321 321 321 321 320 320 319 320 319 318 318 318 318 318 318
286 290 294 297 298 298 298 298 299 300 300 301 301 301 301 302 302 302 302 301 301 300 300 300 299 299 299 300 302 304 307 309 310 310 309 307 305 304 303 302 299 297 300 302 304 307 309 310 311 313 314 315 316 317 317 317 317 317 317 319 320 321 321 321 321 322 322 322 322 322 322 321 321 321 320 320 319 319 319 319 319 318 318 317 318 317 317
295 297 299 299 299 299 299 299 299 299 299 299 299 299 300 301 301 301 301 301 300 299 299 298 298 299 301 302 305 308 310 311 310 308 306 305 304 301 296 293 294 297 301 303 305 307 309 310 312 313 314 315 315 315 315 315 316 317 318 320 321 321 321 321 321 322 322 322 322 322 321 320 320 320 319 319 319 319 319 319 318 318 318 318 317 317 317
299 300 300 299 299 299 298 298 298 297 298 299 299 299 300 301 301 301 300 300 300 299 299 299 300 301 303 306 309 312 312 310 308 306 305 302 297 290 289 292 296 298 301 303 306 308 310 311 313 314 314 314 314 314 315 316 317 318 319 320 320 320 320 321 321 321 321 321 321 321 321 319 319 319 319 319 319 319 318 318 318 318 318 318 318 318 318
300 299 299 299 298 298 297 297 298 298 299 300 300 300 301 301 301 301 301 300 300 299 300 301 302 303 306 310 313 313 310 308 307 304 301 293 285 286 291 295 297 300 302 304 306 309 310 312 313 313 313 314 314 315 316 317 319 319 319 319 320 320 320 320 320 320 320 320 320 320 320 319 318 318 319 319 318 318 318 319 319 319 318 319 319 319 320
299 299 298 298 298 298 298 298 299 299 300 300 300 301 302 302 302 301 301 300 300 300 301 302 304 306 310 313 313 311 309 307 303 297 287 281 282 287 292 295 298 300 303 305 307 309 310 311 312 313 313 313 314 316 317 318 319 319 319 319 320 320 320 320 320 320 320 320 320 320 319 318 318 318 319 319 319 319 320 320 320 320 319 320 320 320 320
299 298 298 298 298 298 298 299 299 300 300 301 302 302 302 302 302 302 302 302 302 302 303 304 306 309 312 313 310 308 306 302 293 282 278 280 285 289 292 295 298 301 304 306 308 309 309 310 311 312 313 314 315 317 317 318 318 318 318 319 319 319 319 320 320 320 320 319 319 320 319 319 319 319 320 320 320 320 321 321 321 320 320 320 320 319 319
298 297 297 297 298 299 299 300 301 301 302 302 303 303 303 303 303 303 303 303 303 304 305 306 308 311 311 309 307 305 300 290 279 274 276 281 285 289 293 297 300 303 305 305 306 307 307 308 310 311 313 315 316 317 317 318 318 318 318 318 319 319 319 319 319 319 319 320 320 320 321 320 320 320 320 321 320 320 320 320 319 319 318 318 318 318 318
297 297 297 298 299 301 301 302 302 303 303 303 303 304 304 303 303 303 303 304 304 305 306 308 309 310 308 305 303 297 286 276 272 274 278 283 287 292 296 299 301 303 304 304 305 306 307 309 311 313 314 315 316 317 317 318 318 318 318 318 318 318 319 319 319 320 320 320 320 321 320 320 319 320 320 320 320 319 318 318 317 317 317 317 317 317 318
298 299 300 301 302 303 303 303 303 303 303 303 303 304 303 303 303 304 304 305 306 307 308 309 310 308 305 301 295 284 274 271 273 277 282 286 291 294 297 299 301 302 303 305 306 307 309 311 312 313 314 315 316 317 317 317 317 317 317 318 318 318 319 319 320 320 320 319 320 320 320 320 320 319 319 318 317 316 316 316 316 316 316 317 317 318 319
300 301 302 303 303 303 303 302 302 302 303 303 303 303 303 304 304 305 306 307 309 310 311 311 309 307 302 294 284 274 271 273 276 281 286 290 293 295 297 299 301 303 304 306 308 309 311 312 313 313 314 315 316 317 317 317 317 317 317 318 318 318 319 319 320 319 319 319 320 320 319 319 317 317 316 315 315 315 315 315 316 316 316 317 318 319 320
302 302 303 303 302 302 302 302 302 303 303 303 304 304 305 306 307 308 310 311 313 313 313 311 308 304 296 286 277 274 275 278 281 285 289 292 294 297 299 301 302 304 306 308 309 311 311 312 313 314 315 315 316 316 317 317 317 317 317 318 318 319 319 319 319 319 319 319 319 318 317 317 315 315 314 315 315 315 316 316 316 316 317 318 318 319 319
303 303 302 302 302 303 303 304 304 305 306 307 307 308 309 310 311 311 312 313 314 314 312 310 306 299 291 283 279 279 280 282 285 289 292 294 296 298 300 302 304 306 308 309 310 311 312 313 313 314 315 315 316 316 317 317 317 317 318 318 319 319 319 319 319 319 319 318 318 317 317 317 316 316 315 315 315 316 316 316 316 317 317 318 318 319 319
303 303 304 304 305 306 307 307 308 309 310 311 311 312 312 312 313 313 314 314 314 313 312 308 303 297 290 284 283 283 284 286 289 292 294 296 298 300 302 304 306 307 308 309 310 312 312 313 314 314 315 316 316 316 316 316 317 318 318 319 319 319 319 319 319 319 318 318 318 317 317 317 316 316 316 316 316 316 316 316 316 317 317 318 318 318 318
306 306 307 308 309 310 310 311 312 313 313 314 314 314 314 314 315 315 315 315 315 314 311 308 303 296 290 286 285 286 287 290 292 294 296 298 300 302 304 305 307 308 309 310 311 312 313 313 314 315 315 315 316 316 316 317 318 318 319 319 319 319 319 319 319 319 318 318 318 317 317 316 316 316 316 316 316 316 316 316 316 316 317 317 318 318 319
309 309 310 311 312 313 313 314 315 316 316 315 316 315 315 316 317 317 317 317 316 314 312 308 302 297 292 289 288 288 290 292 295 297 298 300 302 303 305 306 307 308 309 310 311 312 313 314 314 314 315 315 315 316 317 318 319 319 319 319 319 319 319 319 318 318 317 317 317 316 316 316 316 316 316 315 315 314 315 315 316 317 318 318 319 320 320
312 312 313 314 315 316 317 317 318 318 317 317 317 318 318 319 319 319 319 318 317 314 311 307 302 296 293 291 290 291 293 295 297 298 300 302 303 305 306 307 308 309 310 311 312 313 313 314 314 314 314 315 316 317 318 319 319 319 319 319 318 318 318 317 317 317 316 316 315 315 315 315 314 314 313 313 313 314 315 316 317 318 319 320 320 321 321
315 315 316 317 318 319 319 320 320 320 320 320 320 321 321 321 321 321 321 319 317 314 310 306 301 296 293 292 292 293 295 296 298 299 301 302 304 305 306 307 309 310 311 311 312 313 313 313 313 314 315 317 318 319 319 319 319 318 318 318 317 317 317 317 316 316 316 315 315 315 314 314 313 313 313 313 315 316 317 318 319 320 320 320 320 321 321
319 319 320 320 321 321 321 322 322 322 323 323 323 323 323 323 323 322 321 319 317 313 309 305 301 298 295 294 293 294 296 297 298 299 301 302 304 305 307 308 309 310 311 311 312 312 312 313 314 316 318 318 319 319 319 318 318 318 317 317 317 316 316 316 316 315 315 314 314 313 313 313 313 314 315 316 318 318 319 319 319 320 320 320 320 320 320
323 323 323 324 324 324 324 324 325 325 326 326 325 325 325 324 323 322 321 319 317 313 309 306 303 300 299 298 297 297 298 299 299 300 302 303 305 307 308 309 310 310 311 311 312 312 314 315 317 318 319 319 319 319 318 318 317 316 316 316 316 315 315 314 314 313 313 313 313 313 313 314 315 316 317 318 319 319 319 319 319 320 320 320 320 320 320
328 327 327 327 327 327 327 327 328 328 328 328 328 327 326 325 324 322 321 319 317 314 311 307 305 303 302 301 300 301 302 302 302 303 304 305 307 308 309 309 310 310 311 312 314 315 317 318 319 319 319 319 319 318 317 317 316 315 315 315 314 314 313 313 313 313 313 313 314 314 315 315 316 318 318 319 319 319 319 319 319 320 320 320 320 320 320
333 332 331 330 329 329 329 330 330 330 330 330 330 329 328 326 324 322 321 319 317 315 313 310 308 307 306 304 304 304 305 305 305 306 307 307 308 309 310 311 311 312 314 316 317 318 319 319 319 319 319 318 318 317 316 316 315 315 315 314 314 314 313 313 313 314 314 314 315 315 315 316 316 317 317 317 318 318 318 319 319 319 319 320 320 320 320
337 336 335 333 332 331 331 331 331 330 331 331 331 330 329 327 325 323 321 320 318 316 315 313 311 310 309 309 308 308 308 308 308 309 309 310 310 311 312 313 315 316 318 318 319 319 320 319 319 319 318 317 317 316 316 316 315 315 315 314 314 314 315 315 315 315 315 315 315 315 316 316 316 316 316 317 318 318 319 319 320 320 321 321 321 322 322
340 339 338 337 335 333 333 332 331 330 331 331 330 330 329 327 325 324 322 321 320 319 318 317 316 315 314 313 312 311 311 311 311 312 312 313 314 315 316 317 318 319 320 320 319 319 319 319 318 318 317 317 317 316 316 316 315 315 315 315 315 316 317 317 317 317 317 317 317 318 318 318 318 318 319 319 320 320 321 321 321 322 322 322 322 322 322
344 342 341 340 337 335 334 333 332 331 331 331 330 329 328 327 326 326 325 324 323 322 321 320 319 317 316 316 315 314 314 315 315 316 317 317 318 319 320 320 320 320 320 319 319 319 319 318 318 317 317 317 317 317 316 316 315 316 316 317 318 318 319 318 318 317 317 318 318 318 319 319 319 320 321 322 322 323 323 323 323 323 323 323 323 323 323
347 346 345 343 340 337 335 334 333 331 331 331 330 329 328 328 328 327 326 325 324 323 321 320 319 318 318 318 318 318 319 319 320 320 321 321 321 321 321 320 320 320 319 319 319 318 318 318 318 317 317 317 317 317 316 316 316 317 318 319 319 319 319 318 317 317 317 318 318 318 319 320 320 321 322 323 324 324 324 324 324 324 324 324 324 324 324
349 348 346 344 341 338 336 335 334 332 331 331 331 330 329 328 328 326 325 324 324 323 322 322 322 322 322 322 322 322 323 323 322 322 322 322 321 321 320 320 319 319 319 318 318 318 318 318 318 318 317 317 317 317 317 317 318 319 320 320 320 319 318 317 317 317 317 318 319 319 320 321 322 323 323 324 325 325 325 325 325 325 325 325 325 325 325
349 347 346 345 343 340 337 336 335 333 332 331 330 329 328 327 327 326 326 326 325 325 325 325 325 325 325 324 324 324 323 323 323 322 322 321 321 320 320 319 319 319 319 318 318 318 318 318 318 318 317 317 317 318 318 319 320 321 321 320 319 318 317 317 317 318 319 319 320 321 321 322 323 324 324 325 325 325 325 325 325 325 325 326 326 326 327
347 346 344 343 342 340 338 336 335 333 332 331 330 330 329 328 328 328 327 327 327 327 327 327 326 326 325 324 324 323 323 322 322 322 321 321 321 320 320 319 319 319 318 318 318 318 318 318 318 318 318 319 319 319 320 320 321 321 321 320 319 318 318 318 319 320 320 320 321 322 322 323 324 324 325 325 325 325 325 326 326 326 327 327 327 328 328
345 344 342 341 341 339 338 336 335 334 333 332 331 331 330 330 329 329 328 328 328 328 328 327 326 325 324 323 323 323 322 322 322 322 321 321 320 320 320 319 319 319 319 319 319 319 319 319 319 319 319 320 320 321 321 321 321 321 321 320 319 318 319 319 320 320 321 321 322 323 323 324 325 325 325 325 325 326 326 327 327 327 328 328 329 329 328
343 342 341 339 338 337 336 335 334 333 332 332 331 330 329 329 329 328 328 328 328 327 326 325 324 323 322 322 323 323 323 323 322 322 321 321 320 320 320 319 319 319 319 319 319 319 320 320 320 320 321 321 322 322 322 322 322 322 321 320 319 319 320 320 321 321 322 322 323 324 325 325 325 325 325 326 326 327 328 328 328 329 329 329 329 328 327
339 338 337 336 335 334 334 333 332 331 330 330 329 329 328 328 328 328 328 327 326 325 324 323 323 323 323 324 324 324 323 322 322 321 321 320 320 320 320 320 320 320 320 320 320 320 320 321 321 322 323 323 323 323 323 323 323 322 322 321 321 321 321 322 322 323 323 324 325 325 325 326 326 326 327 327 328 328 329 329 330 329 329 328 328 328 328
336 335 334 334 333 332 331 330 330 329 328 328 327 327 327 327 327 326 326 325 324 324 324 324 324 324 324 324 324 323 322 321 321 321 321 321 321 321 321 321 321 321 321 321 321 321 322 323 324 324 324 324 324 324 324 324 324 323 322 322 322 322 323 323 323 324 324 325 325 326 326 327 327 328 329 329 329 329 330 330 329 329 328 328 329 330 331
335 333 332 331 330 330 329 328 328 327 327 326 326 326 326 326 326 326 325 325 325 325 325 325 325 325 324 323 323 322 321 321 321 321 322 322 322 322 322 322 322 322 322 322 322 323 324 325 325 326 326 326 326 326 326 325 325 324 324 324 324 323 323 324 324 325 325 326 326 327 327 328 329 329 330 330 330 330 330 329 329 329 330 331 332 332 332
335 332 330 329 328 328 327 327 326 326 325 326 326 326 326 326 326 326 325 325 325 325 324 324 324 324 323 322 322 321 321 322 322 322 323 323 323 323 323 323 323 323 323 323 324 325 326 327 327 327 327 327 328 328 327 327 326 325 325 325 325 325 325 325 326 326 326 327 327 328 329 330 330 330 331 331 330 330 330 330 331 332 333 333 333 332 332
335 332 330 328 326 325 325 325 325 325 325 326 326 326 326 326 325 325 325 324 324 324 324 324 323 323 322 322 322 322 322 322 323 323 324 324 324 324 324 324 324 324 325 325 326 327 328 328 328 329 329 329 329 329 328 327 326 327 327 326 326 326 326 326 326 327 327 328 329 330 330 330 330 331 331 331 331 331 332 332 333 333 334 333 333 332 332
333 331 328 326 325 324 323 323 324 324 325 325 325 325 325 325 324 324 324 324 324 324 324 323 323 323 323 323 323 323 323 324 324 325 325 325 325 325 325 325 325 326 326 328 328 329 329 329 329 330 330 331 331 330 329 328 328 328 328 327 327 327 327 327 327 328 329 329 330 330 330 331 331 331 332 332 332 333 333 333 334 334 334 333 333 333 332